CAPE
0 0 0 0 0 0 0 0 0 271 476 603 573 404 273 185 146 27 23 30 1509 1325 1295 1950 2707 2951 2808 2809 2483 2057 1780 1778 1541 1433 1306 1161 1028 947 1037 1380 1698 1274 859 716 953 1321 1428 1268 798
0 0 0 0 0 0 0 0 0 139 801 1316 1117 872 788 654 410 303 77 51 1680 1489 1323 1577 2749 2932 2820 2782 2408 2062 1884 1785 1673 1499 1319 1222 1113 951 862 1170 1459 1439 1069 1108 1219 1344 1255 889 430
0 0 1 0 0 0 0 0 0 2 488 657 654 1099 1646 1548 1309 563 652 811 1216 1585 1006 1235 2629 2849 2888 2726 2452 2159 2031 1942 1740 1564 1369 1312 1375 1271 1315 1177 1315 1473 1605 1198 1180 1046 1151 838 326
0 11 28 18 0 0 0 0 0 0 9 25 17 595 1273 1536 1721 1757 1224 106 376 1490 1476 1451 2321 2529 2720 2708 2501 2311 2144 2078 1963 1632 1468 1474 1611 1624 1536 1320 1483 1408 1494 1447 1666 1605 1147 757 448
0 15 20 43 14 0 0 0 0 0 0 0 0 0 32 60 204 2166 1276 138 0 903 1976 1512 2199 2280 2374 2586 2564 2411 2316 2188 2123 1992 1655 1719 2008 1753 1674 1660 1394 1645 1809 1633 1727 1593 1343 999 765
0 0 39 40 2 0 0 0 0 0 0 0 0 0 8 0 17 2270 1377 564 527 1030 2379 1623 2159 2112 2094 2233 2299 2229 2181 2214 2236 2169 2049 1969 1914 1903 1850 1841 1758 1748 1826 1848 1746 1543 1413 1289 1116
0 0 0 0 1 0 0 0 0 0 0 0 0 0 0 13 0 1381 865 1296 1977 2954 2390 1818 1927 2163 2175 1952 1752 1799 1843 1982 2064 2107 2061 2032 2043 1984 1941 1883 1995 1952 1864 1785 1708 1607 1523 1370 1302
0 0 0 0 0 0 0 0 0 0 0 0 0 0 0 0 0 0 0 1897 3008 2377 1867 1848 1896 2082 1968 1939 1891 1654 1663 1786 1820 1962 2040 2089 2179 2077 1971 1661 1726 1932 1901 1760 1637 1610 1551 1471 1388
0 0 0 0 0 0 0 0 0 0 0 0 0 0 0 0 0 0 0 917 1720 1885 1775 1518 1948 1925 1602 1625 1708 2058 2029 1899 1722 1790 1935 1695 1611 1576 1607 1610 1594 1823 1853 1780 1600 1554 1531 1509 1509
0 0 0 0 0 0 0 0 0 0 0 0 0 0 0 0 0 0 0 0 996 1053 0 0 0 0 0 300 2054 1965 1603 1629 1394 1169 933 1207 1097 945 988 1264 1779 1746 1838 1830 1690 1557 1553 1611 971
0 0 0 0 0 0 0 0 0 0 0 0 0 0 0 0 0 0 0 0 0 0 0 0 0 0 0 0 1036 1703 1602 1322 1325 892 954 936 772 536 415 533 788 1213 1384 1186 1352 1266 1253 1006 904
0 0 0 0 0 0 0 0 0 0 0 0 0 0 0 0 0 0 0 0 0 0 0 0 0 0 0 0 0 0 481 413 449 591 658 919 846 750 614 483 344 501 713 857 733 903 894 947 740
0 0 0 0 0 0 0 0 0 0 0 0 0 0 0 0 0 0 0 0 0 0 0 0 0 0 0 0 0 0 0 0 0 0 291 957 933 1081 1020 869 654 581 771 695 643 552 599 683 657
0 0 0 0 0 0 0 0 0 0 0 0 0 0 0 0 0 0 0 0 0 0 0 0 0 0 0 35 17 8 12 0 0 0 237 1606 1492 1533 1291 1326 1331 1284 1178 751 587 653 795 816 636
0 0 0 0 0 0 0 0 0 0 0 0 0 0 0 0 0 0 0 0 0 0 0 0 0 0 0 65 91 74 56 47 42 4 0 93 1320 1939 1710 1275 1240 660 1096 1018 1087 1044 1055 818 688
0 0 0 0 0 0 0 0 0 0 0 0 0 0 0 0 0 0 0 0 0 0 0 0 0 0 0 0 0 21 63 79 95 104 71 2 98 794 1058 928 1026 1051 1036 1191 1214 1117 908 806 651
0 0 0 0 0 0 0 0 0 0 0 0 0 0 0 0 0 0 0 0 0 0 0 0 0 0 0 0 0 0 0 21 157 256 220 85 4 107 919 1038 1291 1565 1592 1399 1242 1145 1039 635 565
0 0 0 0 0 0 0 0 0 0 0 0 0 0 0 0 0 0 0 0 0 0 0 0 0 0 0 8 0 0 0 2 143 249 199 387 457 190 874 1290 1542 1573 1456 1435 1293 1151 949 748 828
0 0 0 0 0 0 0 0 0 0 0 0 0 0 0 0 0 0 0 0 0 0 0 0 0 0 0 0 0 0 0 52 96 129 293 443 394 338 376 1002 1565 1489 1313 916 878 235 224 418 342
0 0 0 0 0 0 0 0 0 0 0 0 0 0 0 0 0 0 0 0 0 2 20 0 0 0 0 0 0 0 0 0 16 31 173 282 239 302 485 861 1044 1074 799 487 280 83 27 289 388
0 0 0 0 0 0 0 0 0 0 0 0 0 0 0 0 0 0 0 0 0 0 8 11 0 1 0 0 0 0 0 0 0 0 43 173 205 258 305 474 831 622 350 230 114 72 155 154 267
0 0 0 0 0 0 0 0 0 0 0 0 0 0 0 0 0 0 0 0 0 0 0 0 45 23 1 0 0 0 0 0 0 15 46 237 151 209 213 243 303 305 239 260 265 190 31 83 82
0 0 0 0 0 0 0 0 0 0 0 0 0 0 0 0 0 1 0 0 0 0 0 0 0 0 0 0 7 0 0 0 0 3 70 81 271 108 134 105 71 59 139 145 111 46 46 17 43
0 0 0 0 0 0 0 0 0 0 0 0 0 0 0 0 0 0 0 0 0 0 0 0 0 0 0 9 80 11 0 0 0 1 53 169 214 189 210 107 67 63 53 13 30 39 17 30 286
0 0 0 0 0 0 0 0 0 0 0 0 0 0 0 0 0 0 0 0 0 0 0 0 0 0 0 27 84 98 1 0 7 15 14 110 119 115 107 230 107 100 69 69 114 106 116 181 267
0 0 0 0 0 0 0 0 0 0 0 0 0 0 0 0 0 0 0 0 0 0 0 0 0 0 0 0 28 128 94 0 53 21 57 47 7 7 6 28 114 88 37 3 8 22 75 103 16
0 0 0 0 0 0 0 0 0 0 0 0 0 0 0 0 0 0 0 0 0 0 0 0 0 1 0 0 0 0 13 37 54 8 39 0 0 2 13 2 4 89 58 35 26 2 31 5 0
0 0 0 0 0 0 0 0 0 0 0 0 0 0 0 0 0 0 0 0 0 0 0 0 0 0 1 15 3 3 0 0 5 9 5 1 0 0 0 0 0 0 18 47 16 2 3 0 0
0 0 0 0 0 0 0 0 0 0 0 0 0 0 0 0 0 0 0 0 0 0 0 1 1 0 0 0 3 1 0 0 0 0 7 10 0 0 0 0 0 0 5 3 0 0 0 0 0
0 0 0 0 0 0 0 0 0 0 0 0 0 1 1 0 0 0 0 0 0 0 0 0 0 0 0 0 0 0 0 0 0 0 8 22 10 2 3 0 0 0 10 1 0 1 0 0 0
CIN
-0 -0 -0 -0 -0 -0 -0 -0 -0 -69 -43 -34 -42 -36 -101 -89 -296 -264 -521 -594 -105 -190 -280 -174 -77 -58 -61 -65 -69 -83 -100 -86 -79 -113 -134 -115 -121 -107 -62 -21 -0 -7 -52 -67 -34 -5 -1 -1 -23
-0 -0 -0 -0 -0 -0 -0 -0 -0 -58 -59 -53 -44 -50 -55 -56 -65 -276 -158 -155 -143 -92 -293 -279 -121 -97 -96 -82 -88 -97 -87 -70 -68 -60 -89 -101 -80 -90 -82 -31 -11 -10 -20 -9 -4 -3 -10 -38 -95
-0 -0 -20 -22 -0 -0 -0 -0 -0 -26 -24 -45 -64 -45 -54 -68 -92 -41 -25 -36 -34 -141 -344 -299 -180 -170 -139 -132 -125 -130 -112 -81 -75 -87 -105 -110 -72 -65 -47 -38 -11 -2 -1 -6 -0 -4 -4 -37 -118
-0 -31 -35 -53 -2 -0 -0 -0 -0 -0 -50 -94 -83 -60 -48 -22 -48 -20 -43 -55 -115 -143 -200 -276 -215 -185 -186 -182 -168 -140 -102 -70 -57 -84 -110 -79 -53 -33 -29 -38 -3 -0 -0 -2 -1 -0 -0 -27 -85
-0 -28 -20 -30 -2 -0 -0 -0 -0 -0 -0 -0 -0 -0 -112 -70 -150 -36 -31 -52 -0 -43 -152 -194 -253 -267 -256 -201 -161 -131 -115 -102 -96 -89 -81 -45 -15 -7 -11 -16 -20 -0 -0 -0 -0 -1 -1 -2 -24
-0 -0 -9 -6 -12 -0 -0 -0 -0 -0 -0 -0 -0 -17 -17 -0 -18 -74 -43 -30 -86 -93 -126 -198 -204 -240 -198 -157 -154 -140 -129 -140 -125 -116 -113 -84 -39 -18 -3 -0 -0 -1 -0 -0 -0 -1 -2 -2 -1
-0 -0 -0 -0 -7 -0 -0 -0 -0 -0 -0 -0 -0 -0 -0 -85 -0 -132 -59 -27 -116 -113 -112 -213 -185 -150 -145 -155 -180 -172 -176 -157 -122 -87 -72 -60 -41 -38 -26 -11 -0 -0 -0 -0 -0 -2 -2 -3 -1
-0 -0 -0 -0 -0 -0 -0 -0 -0 -0 -0 -0 -0 -0 -0 -0 -0 -0 -0 -83 -36 -41 -111 -146 -143 -101 -109 -101 -101 -130 -151 -165 -151 -113 -90 -74 -60 -42 -29 -28 -25 -3 -0 -0 -0 -0 -1 -2 -1
-0 -0 -0 -0 -0 -0 -0 -0 -0 -0 -0 -0 -0 -0 -0 -0 -0 -0 -0 -65 -31 -41 -53 -75 -47 -46 -57 -75 -91 -70 -82 -103 -127 -137 -106 -102 -82 -88 -56 -41 -41 -17 -4 -3 -10 -8 -2 -0 -0
-0 -0 -0 -0 -0 -0 -0 -0 -0 -0 -0 -0 -0 -0 -0 -0 -0 -0 -0 -0 -100 -17 -31 -0 -0 -0 -45 -74 -42 -64 -103 -97 -109 -126 -132 -96 -129 -140 -129 -79 -25 -28 -27 -22 -21 -23 -10 -1 -26
-0 -0 -0 -0 -0 -0 -0 -0 -0 -0 -0 -0 -0 -0 -0 -0 -0 -0 -0 -0 -0 -0 -0 -0 -0 -0 -0 -0 -115 -42 -58 -101 -93 -77 -37 -125 -159 -40 -209 -191 -156 -92 -91 -107 -57 -45 -34 -51 -46
-0 -0 -0 -0 -0 -0 -0 -0 -0 -0 -0 -0 -0 -0 -0 -0 -0 -0 -0 -0 -0 -0 -0 -0 -0 -0 -0 -0 -0 -0 -181 -198 -227 -203 -129 -136 -131 -17 -43 -43 -117 -170 -147 -129 -134 -106 -92 -76 -76
-0 -0 -0 -0 -0 -0 -0 -0 -0 -0 -0 -0 -0 -0 -0 -0 -0 -0 -0 -0 -0 -0 -0 -0 -0 -0 -0 -0 -0 -0 -0 -0 -0 -0 -229 -147 -139 -42 -70 -59 -45 -55 -35 -57 -145 -135 -86 -47 -83
-0 -0 -0 -0 -0 -0 -0 -0 -0 -0 -0 -0 -0 -0 -0 -0 -0 -0 -0 -0 -0 -0 -0 -0 -0 -0 -0 -372 -321 -223 -172 -0 -0 -0 -243 -59 -42 -33 -61 -64 -44 -40 -32 -38 -26 -23 -20 -27 -26
-0 -0 -0 -0 -0 -0 -0 -0 -0 -0 -0 -0 -0 -0 -0 -0 -0 -0 -0 -0 -0 -0 -0 -0 -0 -0 -0 -396 -385 -358 -347 -299 -207 -70 -0 -303 -84 -26 -18 -33 -38 -137 -64 -36 -27 -39 -30 -31 -22
-0 -0 -0 -0 -0 -0 -0 -0 -0 -0 -0 -0 -0 -0 -0 -0 -0 -0 -0 -0 -0 -0 -0 -0 -0 -0 -0 -0 -0 -259 -331 -321 -252 -179 -156 -32 -252 -116 -104 -87 -32 -115 -105 -46 -39 -30 -29 -25 -33
-0 -0 -0 -0 -0 -0 -0 -0 -0 -0 -0 -0 -0 -0 -0 -0 -0 -0 -0 -0 -0 -0 -0 -0 -0 -0 -0 -0 -0 -0 -0 -163 -166 -91 -124 -174 -46 -213 -109 -117 -116 -85 -46 -59 -62 -48 -20 -18 -26
-0 -0 -0 -0 -0 -0 -0 -0 -0 -0 -0 -0 -0 -0 -0 -0 -0 -0 -0 -0 -0 -0 -0 -0 -0 -0 -0 -338 -0 -0 -0 -17 -113 -69 -90 -82 -94 -119 -111 -89 -82 -42 -43 -61 -64 -30 -23 -15 -10
-0 -0 -0 -0 -0 -0 -0 -0 -0 -0 -0 -0 -0 -0 -0 -0 -0 -0 -0 -0 -0 -0 -0 -0 -0 -0 -0 -0 -0 -0 -0 -238 -140 -93 -38 -28 -62 -68 -72 -99 -34 -38 -72 -36 -35 -27 -42 -18 -33
-0 -0 -0 -0 -0 -0 -0 -0 -0 -0 -0 -0 -0 -0 -0 -0 -0 -0 -0 -0 -0 -31 -118 -0 -0 -0 -0 -0 -0 -0 -0 -0 -66 -109 -66 -15 -34 -42 -77 -101 -61 -52 -12 -20 -27 -37 -38 -66 -39
-0 -0 -0 -0 -0 -0 -0 -0 -0 -0 -0 -0 -0 -0 -0 -0 -0 -0 -0 -0 -0 -0 -59 -188 -0 -71 -0 -0 -0 -0 -0 -0 -0 -0 -86 -44 -31 -24 -51 -89 -66 -44 -19 -23 -25 -13 -28 -15 -23
-0 -0 -0 -0 -0 -0 -0 -0 -0 -0 -0 -0 -0 -0 -0 -0 -0 -0 -6 -0 -0 -0 -0 -0 -188 -155 -42 -0 -0 -0 -0 -0 -0 -81 -23 -15 -15 -14 -25 -73 -69 -23 -25 -64 -37 -37 -15 -26 -38
-0 -0 -0 -0 -0 -0 -0 -0 -0 -0 -0 -0 -0 -0 -0 -0 -1 -25 -0 -0 -0 -0 -0 -0 -0 -0 -0 -0 -149 -3 -0 -0 -0 -51 -20 -28 -14 -33 -29 -24 -22 -38 -34 -19 -8 -14 -9 -6 -132
-0 -0 -0 -0 -0 -0 -0 -0 -0 -0 -0 -0 -0 -0 -0 -0 -0 -0 -0 -0 -0 -0 -0 -0 -0 -0 -0 -205 -111 -100 -0 -0 -0 -90 -68 -9 -12 -6 -31 -7 -7 -18 -24 -19 -3 -8 -45 -124 -11
-0 -0 -0 -0 -0 -0 -0 -0 -0 -0 -0 -0 -0 -0 -0 -0 -0 -0 -0 -0 -0 -0 -0 -0 -0 -0 -0 -154 -92 -76 -12 -0 -99 -84 -39 -12 -2 -11 -7 -2 -19 -37 -37 -69 -75 -128 -185 -33 -44
-0 -0 -0 -0 -0 -0 -0 -0 -0 -0 -0 -0 -0 -0 -0 -0 -0 -0 -0 -0 -0 -0 -0 -0 -0 -0 -0 -1 -88 -64 -136 -10 -72 -29 -28 -22 -23 -5 -0 -5 -0 -25 -62 -9 -103 -127 -148 -85 -97
-0 -0 -0 -0 -0 -0 -0 -0 -0 -0 -0 -0 -0 -0 -0 -0 -0 -0 -0 -0 -0 -0 -0 -0 -0 -2 -0 -0 -0 -0 -135 -53 -17 -27 -9 -0 -0 -0 -3 -0 -17 -3 -2 -6 -100 -31 -123 -112 -0
-0 -0 -0 -0 -0 -0 -0 -0 -0 -0 -0 -0 -0 -0 -0 -0 -0 -0 -0 -0 -0 -0 -0 -0 -0 -0 -2 -2 -4 -3 -0 -0 -21 -4 -11 -5 -0 -0 -0 -0 -17 -0 -33 -22 -16 -82 -45 -9 -0
-0 -0 -0 -0 -0 -0 -0 -0 -0 -0 -0 -0 -0 -0 -0 -4 -0 -0 -0 -0 -0 -0 -0 -8 -5 -0 -0 -0 -10 -3 -0 -0 -0 -0 -3 -6 -0 -0 -0 -0 -0 -0 -67 -132 -0 -0 -14 -0 -0
-0 -0 -0 -0 -0 -0 -0 -0 -0 -0 -0 -0 -0 -31 -41 -0 -0 -0 -0 -0 -0 -0 -0 -0 -0 -0 -0 -0 -0 -0 -0 -0 -0 -0 -7 -0 -0 -3 -0 -0 -0 -0 -76 -24 -0 -20 -0 -0 -0
Wind_Speed
nan nan nan nan nan nan nan nan nan 27 28 23 35 25 14 22 21 nan nan nan 21 2 7 8 8 6 9 13 14 15 15 17 17 19 22 20 21 20 19 18 17 17 19 20 21 21 20 19 20
nan nan nan nan nan nan nan nan nan 28 30 41 42 37 27 16 12 12 nan nan 10 5 3 7 11 10 15 15 16 16 17 17 19 18 20 22 19 19 19 19 17 17 17 16 17 18 19 19 20
nan nan nan nan nan nan nan nan nan nan 35 45 36 30 28 17 12 13 39 47 34 20 5 9 13 17 17 19 19 18 18 18 20 21 21 22 20 19 20 20 17 14 15 16 15 15 16 18 18
nan nan nan nan nan nan nan nan nan nan nan nan nan 31 21 18 23 29 49 48 37 19 3 7 22 21 23 25 25 24 25 22 21 22 21 22 24 20 20 20 19 17 15 16 18 18 15 16 17
nan nan nan nan nan nan nan nan nan nan nan nan nan nan nan nan 30 41 50 49 nan 28 19 17 23 21 25 28 28 26 29 28 25 25 26 24 26 24 20 22 21 19 17 17 16 19 20 17 16
nan nan nan nan nan nan nan nan nan nan nan nan nan nan nan nan nan 34 42 44 37 22 21 18 16 24 28 27 28 27 29 29 30 28 28 31 30 29 25 23 22 21 19 19 18 18 19 19 18
nan nan nan nan nan nan nan nan nan nan nan nan nan nan nan nan nan 40 35 33 25 32 25 24 19 20 24 26 28 33 33 28 29 29 30 26 24 28 30 29 26 24 22 21 22 21 22 22 21
nan nan nan nan nan nan nan nan nan nan nan nan nan nan nan nan nan nan nan 29 27 31 32 28 26 25 22 18 23 26 29 29 30 25 24 29 29 32 28 24 28 29 26 24 23 24 24 25 25
nan nan nan nan nan nan nan nan nan nan nan nan nan nan nan nan nan nan nan 37 35 38 37 36 34 31 28 27 29 28 25 28 29 32 30 36 34 34 34 27 24 27 27 26 25 25 27 26 25
nan nan nan nan nan nan nan nan nan nan nan nan nan nan nan nan nan nan nan nan 38 35 nan nan nan nan nan 34 37 36 34 34 33 36 37 35 39 38 37 28 27 25 28 28 25 26 27 28 35
nan nan nan nan nan nan nan nan nan nan nan nan nan nan nan nan nan nan nan nan nan nan nan nan nan nan nan nan 42 38 40 41 39 37 34 36 38 43 41 36 34 32 32 36 35 34 34 35 37
nan nan nan nan nan nan nan nan nan nan nan nan nan nan nan nan nan nan nan nan nan nan nan nan nan nan nan nan nan nan 40 39 38 37 35 37 38 40 43 33 37 40 46 43 42 43 40 39 41
nan nan nan nan nan nan nan nan nan nan nan nan nan nan nan nan nan nan nan nan nan nan nan nan nan nan nan nan nan nan nan nan nan nan 36 39 38 37 41 38 37 39 43 45 44 43 44 40 39
nan nan nan nan nan nan nan nan nan nan nan nan nan nan nan nan nan nan nan nan nan nan nan nan nan nan nan nan nan nan nan nan nan nan 39 36 38 40 41 38 39 43 45 45 47 50 46 47 50
nan nan nan nan nan nan nan nan nan nan nan nan nan nan nan nan nan nan nan nan nan nan nan nan nan nan nan nan nan nan nan nan nan nan nan nan 39 40 40 41 41 42 47 46 46 47 47 46 49
nan nan nan nan nan nan nan nan nan nan nan nan nan nan nan nan nan nan nan nan nan nan nan nan nan nan nan nan nan nan nan nan nan 47 nan nan nan 37 37 38 36 39 47 47 49 49 48 47 47
nan nan nan nan nan nan nan nan nan nan nan nan nan nan nan nan nan nan nan nan nan nan nan nan nan nan nan nan nan nan nan nan 42 44 46 nan nan 40 41 40 35 36 42 45 47 48 53 49 48
nan nan nan nan nan nan nan nan nan nan nan nan nan nan nan nan nan nan nan nan nan nan nan nan nan nan nan nan nan nan nan nan 48 44 42 42 44 41 44 41 39 38 41 43 50 53 51 52 50
nan nan nan nan nan nan nan nan nan nan nan nan nan nan nan nan nan nan nan nan nan nan nan nan nan nan nan nan nan nan nan nan nan 52 46 45 45 41 36 39 38 43 50 54 53 51 45 52 57
nan nan nan nan nan nan nan nan nan nan nan nan nan nan nan nan nan nan nan nan nan nan nan nan nan nan nan nan nan nan nan nan nan nan 53 48 49 50 47 40 45 49 49 48 49 nan nan 52 44
nan nan nan nan nan nan nan nan nan nan nan nan nan nan nan nan nan nan nan nan nan nan nan nan nan nan nan nan nan nan nan nan nan nan nan 53 51 50 48 49 50 51 50 48 44 nan 44 42 34
nan nan nan nan nan nan nan nan nan nan nan nan nan nan nan nan nan nan nan nan nan nan nan nan nan nan nan nan nan nan nan nan nan nan nan 55 55 54 52 50 51 54 52 53 50 49 nan nan nan
nan nan nan nan nan nan nan nan nan nan nan nan nan nan nan nan nan nan nan nan nan nan nan nan nan nan nan nan nan nan nan nan nan nan nan nan 54 54 53 54 nan nan 48 46 46 nan nan nan nan
nan nan nan nan nan nan nan nan nan nan nan nan nan nan nan nan nan nan nan nan nan nan nan nan nan nan nan nan nan nan nan nan nan nan nan 47 54 54 60 54 nan nan nan nan nan nan nan nan 41
nan nan nan nan nan nan nan nan nan nan nan nan nan nan nan nan nan nan nan nan nan nan nan nan nan nan nan nan nan nan nan nan nan nan nan 42 52 55 57 59 56 48 nan nan 48 55 48 53 47
nan nan nan nan nan nan nan nan nan nan nan nan nan nan nan nan nan nan nan nan nan nan nan nan nan nan nan nan nan 35 nan nan nan nan nan nan nan nan nan nan 55 nan nan nan nan nan nan 35 nan
nan nan nan nan nan nan nan nan nan nan nan nan nan nan nan nan nan nan nan nan nan nan nan nan nan nan nan nan nan nan nan nan nan nan nan nan nan nan nan nan nan nan nan nan nan nan nan nan nan
nan nan nan nan nan nan nan nan nan nan nan nan nan nan nan nan nan nan nan nan nan nan nan nan nan nan nan nan nan nan nan nan nan nan nan nan nan nan nan nan nan nan nan nan nan nan nan nan nan
nan nan nan nan nan nan nan nan nan nan nan nan nan nan nan nan nan nan nan nan nan nan nan nan nan nan nan nan nan nan nan nan nan nan nan nan nan nan nan nan nan nan nan nan nan nan nan nan nan
nan nan nan nan nan nan nan nan nan nan nan nan nan nan nan nan nan nan nan nan nan nan nan nan nan nan nan nan nan nan nan nan nan nan nan nan nan nan nan nan nan nan nan nan nan nan nan nan nan
Wind_Direction
nan nan nan nan nan nan nan nan nan 277 276 285 295 293 308 317 332 nan nan nan 12 88 11 11 345 328 329 312 313 308 303 301 291 292 291 292 295 293 290 285 283 287 295 298 294 288 284 280 275
nan nan nan nan nan nan nan nan nan 290 273 277 277 285 293 297 309 316 nan nan 302 211 238 276 295 308 313 311 317 310 301 296 292 286 287 287 286 287 287 288 284 289 292 291 291 291 288 283 279
nan nan nan nan nan nan nan nan nan nan 295 287 288 299 299 308 281 274 252 233 192 177 242 250 290 309 302 302 303 300 298 295 294 295 294 292 294 297 297 294 286 281 289 286 281 282 283 282 280
nan nan nan nan nan nan nan nan nan nan nan nan nan 283 277 286 292 284 269 242 154 139 23 330 329 310 304 307 304 302 294 292 290 292 295 295 295 296 297 299 297 293 288 284 292 286 277 277 277
nan nan nan nan nan nan nan nan nan nan nan nan nan nan nan nan 282 297 298 313 nan 14 331 318 312 307 311 302 296 294 295 296 298 300 298 293 291 288 290 296 300 297 291 290 290 293 292 285 282
nan nan nan nan nan nan nan nan nan nan nan nan nan nan nan nan nan 300 302 316 337 338 290 298 305 300 298 299 292 295 301 298 301 303 299 302 299 295 292 290 291 294 292 286 288 289 290 286 280
nan nan nan nan nan nan nan nan nan nan nan nan nan nan nan nan nan 305 316 322 313 297 288 285 277 269 282 295 300 298 300 299 304 288 287 289 290 292 296 296 292 289 286 285 287 285 288 294 291
nan nan nan nan nan nan nan nan nan nan nan nan nan nan nan nan nan nan nan 312 297 292 288 285 280 274 271 276 271 281 292 295 294 290 290 284 295 296 291 293 292 292 291 290 290 289 287 288 289
nan nan nan nan nan nan nan nan nan nan nan nan nan nan nan nan nan nan nan 284 289 287 290 292 292 284 283 281 279 279 282 283 287 281 293 290 285 286 287 286 295 296 290 288 291 291 289 288 286
nan nan nan nan nan nan nan nan nan nan nan nan nan nan nan nan nan nan nan nan 286 285 nan nan nan nan nan 283 282 285 278 275 273 263 269 276 283 282 284 287 298 284 291 289 283 281 282 280 272
nan nan nan nan nan nan nan nan nan nan nan nan nan nan nan nan nan nan nan nan nan nan nan nan nan nan nan nan 273 274 276 276 276 276 276 276 275 277 278 278 271 271 283 275 281 274 269 267 265
nan nan nan nan nan nan nan nan nan nan nan nan nan nan nan nan nan nan nan nan nan nan nan nan nan nan nan nan nan nan 270 274 278 283 284 279 274 275 278 273 265 271 275 282 279 268 272 268 262
nan nan nan nan nan nan nan nan nan nan nan nan nan nan nan nan nan nan nan nan nan nan nan nan nan nan nan nan nan nan nan nan nan nan 275 277 276 275 274 275 266 270 273 276 277 282 277 270 269
nan nan nan nan nan nan nan nan nan nan nan nan nan nan nan nan nan nan nan nan nan nan nan nan nan nan nan nan nan nan nan nan nan nan 270 274 275 274 273 276 281 280 280 279 277 277 274 273 276
nan nan nan nan nan nan nan nan nan nan nan nan nan nan nan nan nan nan nan nan nan nan nan nan nan nan nan nan nan nan nan nan nan nan nan nan 276 275 275 275 274 275 275 277 273 273 275 268 267
nan nan nan nan nan nan nan nan nan nan nan nan nan nan nan nan nan nan nan nan nan nan nan nan nan nan nan nan nan nan nan nan nan 264 nan nan nan 277 278 279 280 278 276 275 275 270 268 269 266
nan nan nan nan nan nan nan nan nan nan nan nan nan nan nan nan nan nan nan nan nan nan nan nan nan nan nan nan nan nan nan nan 262 261 259 nan nan 269 278 280 280 278 274 272 271 269 266 266 266
nan nan nan nan nan nan nan nan nan nan nan nan nan nan nan nan nan nan nan nan nan nan nan nan nan nan nan nan nan nan nan nan 267 259 259 252 256 260 271 275 279 274 268 269 265 267 270 268 264
nan nan nan nan nan nan nan nan nan nan nan nan nan nan nan nan nan nan nan nan nan nan nan nan nan nan nan nan nan nan nan nan nan 265 251 251 250 255 267 276 273 266 262 266 265 266 269 275 263
nan nan nan nan nan nan nan nan nan nan nan nan nan nan nan nan nan nan nan nan nan nan nan nan nan nan nan nan nan nan nan nan nan nan 257 254 253 250 255 262 267 268 267 266 264 nan nan 267 273
nan nan nan nan nan nan nan nan nan nan nan nan nan nan nan nan nan nan nan nan nan nan nan nan nan nan nan nan nan nan nan nan nan nan nan 251 249 251 251 256 262 266 267 268 266 nan 267 251 282
nan nan nan nan nan nan nan nan nan nan nan nan nan nan nan nan nan nan nan nan nan nan nan nan nan nan nan nan nan nan nan nan nan nan nan 249 246 248 248 249 254 257 261 264 265 266 nan nan nan
nan nan nan nan nan nan nan nan nan nan nan nan nan nan nan nan nan nan nan nan nan nan nan nan nan nan nan nan nan nan nan nan nan nan nan nan 245 246 247 247 nan nan 258 264 270 nan nan nan nan
nan nan nan nan nan nan nan nan nan nan nan nan nan nan nan nan nan nan nan nan nan nan nan nan nan nan nan nan nan nan nan nan nan nan nan 260 245 241 240 245 nan nan nan nan nan nan nan nan 281
nan nan nan nan nan nan nan nan nan nan nan nan nan nan nan nan nan nan nan nan nan nan nan nan nan nan nan nan nan nan nan nan nan nan nan 258 248 241 238 241 242 247 nan nan 257 260 262 269 270
nan nan nan nan nan nan nan nan nan nan nan nan nan nan nan nan nan nan nan nan nan nan nan nan nan nan nan nan nan 286 nan nan nan nan nan nan nan nan nan nan 244 nan nan nan nan nan nan 240 nan
nan nan nan nan nan nan nan nan nan nan nan nan nan nan nan nan nan nan nan nan nan nan nan nan nan nan nan nan nan nan nan nan nan nan nan nan nan nan nan nan nan nan nan nan nan nan nan nan nan
nan nan nan nan nan nan nan nan nan nan nan nan nan nan nan nan nan nan nan nan nan nan nan nan nan nan nan nan nan nan nan nan nan nan nan nan nan nan nan nan nan nan nan nan nan nan nan nan nan
nan nan nan nan nan nan nan nan nan nan nan nan nan nan nan nan nan nan nan nan nan nan nan nan nan nan nan nan nan nan nan nan nan nan nan nan nan nan nan nan nan nan nan nan nan nan nan nan nan
nan nan nan nan nan nan nan nan nan nan nan nan nan nan nan nan nan nan nan nan nan nan nan nan nan nan nan nan nan nan nan nan nan nan nan nan nan nan nan nan nan nan nan nan nan nan nan nan nan